History for F39, Texas on Wednesday, October 6, 2004

Jump to data by:

Latest visited Airport Codes: F39

Data type:
 

« Previous Day | Next Day »

 
Daily Summary
Actual Average (KDFW) Record (KDFW)
Temperature
Mean Temperature 70 °F 71 °F  
Max Temperature 82 °F 81 °F 96 °F (1956)
Min Temperature 59 °F 60 °F 43 °F (1915)
Degree Days
Heating Degree Days 0 1  
Month to date heating degree days 6  
Since 1 July heating degree days 12  
Cooling Degree Days 6 7  
Month to date cooling degree days 44  
Year to date cooling degree days 2621  
Growing Degree Days 20 (Base 50)    
Moisture
Dew Point 54 °F    
Average Humidity 59    
Maximum Humidity 77    
Minimum Humidity 48    
Precipitation
Precipitation 0.04 in 0.11 in 3.44 in (1930)
Month to date precipitation 0.60  
Year to date precipitation 27.26  
Snow
Snow 0.00 in 0.00 in 0.00 in ()
Month to date snowfall 0.0  
Since 1 July snowfall 0.0  
Since 1 September snowfall 0.0  
Snow Depth -    
Sea Level Pressure
Sea Level Pressure 30.15 in    
Wind
Wind Speed 6 mph (ESE)    
Max Wind Speed 12 mph    
Max Gust Speed 17 mph    
Visibility 10 miles    
Events Rain   

Click here for data from the nearest station with official NWS data (KDFW).
Key: T is trace of precipitation, MM is missing value
Source: NWS Daily Summary
Time (CDT) Temp. Dew Point Humidity Sea Level Pressure Visibility Wind Direction Wind Speed Gust Speed Precip. Events Conditions
12:05 AM 64.4 °F 55.4 °F 73% 30.16 in 10.0 miles East 4.6 mph - N/A   Clear
12:25 AM 64.4 °F 55.4 °F 73% 30.16 in 10.0 miles East 4.6 mph - N/A   Clear
12:45 AM 64.4 °F 55.4 °F 73% 30.15 in 10.0 miles East 6.9 mph - N/A   Clear
1:05 AM 64.4 °F 55.4 °F 73% 30.15 in 10.0 miles East 4.6 mph - N/A   Clear
1:25 AM 64.4 °F 55.4 °F 73% 30.15 in 10.0 miles East 3.5 mph - N/A   Clear
1:45 AM 62.6 °F 55.4 °F 77% 30.15 in 10.0 miles East 4.6 mph - N/A   Scattered Clouds
2:05 AM 62.6 °F 55.4 °F 77% 30.16 in 10.0 miles Calm Calm - N/A   Scattered Clouds
2:25 AM 62.6 °F 55.4 °F 77% 30.16 in 10.0 miles Calm Calm - N/A   Scattered Clouds
2:45 AM 64.4 °F 57.2 °F 77% 30.16 in 10.0 miles East 3.5 mph - N/A   Scattered Clouds
3:05 AM 66.2 °F 55.4 °F 68% 30.16 in 10.0 miles East 4.6 mph - N/A   Scattered Clouds
3:25 AM 64.4 °F 55.4 °F 73% 30.15 in 10.0 miles East 4.6 mph - N/A   Scattered Clouds
3:45 AM 64.4 °F 53.6 °F 68% 30.15 in 10.0 miles East 4.6 mph - N/A   Scattered Clouds
4:05 AM 66.2 °F 51.8 °F 60% 30.15 in 10.0 miles NE 5.8 mph - N/A   Clear
4:25 AM 66.2 °F 50.0 °F 56% 30.14 in 10.0 miles East 6.9 mph - N/A Rain Rain
4:45 AM 64.4 °F 51.8 °F 64% 30.14 in 10.0 miles East 8.1 mph - N/A   Mostly Cloudy
5:05 AM 64.4 °F 48.2 °F 56% 30.14 in 10.0 miles East 9.2 mph - N/A   Scattered Clouds
5:25 AM 64.4 °F 46.4 °F 52% 30.14 in 10.0 miles East 5.8 mph - N/A   Scattered Clouds
5:45 AM 64.4 °F 46.4 °F 52% 30.14 in 10.0 miles East 8.1 mph - N/A   Mostly Cloudy
6:05 AM 64.4 °F 44.6 °F 49% 30.14 in 10.0 miles East 6.9 mph - N/A   Scattered Clouds
6:25 AM 62.6 °F 44.6 °F 52% 30.15 in 10.0 miles East 6.9 mph - N/A   Scattered Clouds
6:45 AM 62.6 °F 44.6 °F 52% 30.16 in 10.0 miles East 5.8 mph - N/A   Mostly Cloudy
7:05 AM 62.6 °F 46.4 °F 55% 30.16 in 10.0 miles East 5.8 mph - N/A Rain Light Rain
7:25 AM 62.6 °F 46.4 °F 55% 30.17 in 10.0 miles East 5.8 mph - N/A   Overcast
7:45 AM 62.6 °F 46.4 °F 55% 30.17 in 10.0 miles East 5.8 mph - N/A Rain Light Rain
8:05 AM 62.6 °F 46.4 °F 55% 30.18 in 10.0 miles East 5.8 mph - N/A   Drizzle
8:25 AM 60.8 °F 50.0 °F 68% 30.18 in 5.0 miles East 4.6 mph - 0.02 in Rain Rain
8:45 AM 59.0 °F 50.0 °F 72% 30.18 in 10.0 miles East 6.9 mph - 0.04 in   Overcast
9:05 AM 60.8 °F 50.0 °F 68% 30.18 in 7.0 miles East 6.9 mph - N/A Rain Light Rain
9:25 AM 60.8 °F 50.0 °F 68% 30.18 in 10.0 miles East 9.2 mph - N/A   Mostly Cloudy
9:45 AM 62.6 °F 50.0 °F 63% 30.18 in 10.0 miles ESE 11.5 mph - N/A   Mostly Cloudy
10:05 AM 62.6 °F 50.0 °F 63% 30.18 in 10.0 miles East 11.5 mph - N/A   Mostly Cloudy
10:25 AM 66.2 °F 51.8 °F 60% 30.18 in 10.0 miles East 9.2 mph - N/A   Scattered Clouds
10:45 AM 66.2 °F 50.0 °F 56% 30.18 in 10.0 miles East 10.4 mph - N/A   Clear
11:05 AM 68.0 °F 50.0 °F 52% 30.18 in 10.0 miles ESE 11.5 mph - N/A   Clear
11:25 AM 69.8 °F 51.8 °F 53% 30.18 in 10.0 miles ESE 10.4 mph - N/A   Clear
11:45 AM 71.6 °F 53.6 °F 53% 30.18 in 10.0 miles ESE 10.4 mph 17.3 mph N/A   Clear
12:05 PM 71.6 °F 53.6 °F 53% 30.17 in 10.0 miles ESE 8.1 mph - N/A   Scattered Clouds
12:25 PM 77.0 °F 57.2 °F 50% 30.17 in 10.0 miles ESE 10.4 mph - N/A   Clear
12:45 PM 77.0 °F 57.2 °F 50% 30.16 in 10.0 miles ESE 9.2 mph - N/A   Clear
1:05 PM 77.0 °F 57.2 °F 50% 30.16 in 10.0 miles East 8.1 mph - N/A   Clear
1:25 PM 78.8 °F 59.0 °F 51% 30.15 in 10.0 miles ESE 6.9 mph - N/A   Scattered Clouds
1:45 PM 80.6 °F 59.0 °F 48% 30.14 in 10.0 miles ESE 8.1 mph - N/A   Mostly Cloudy
2:05 PM 80.6 °F 59.0 °F 48% 30.14 in 10.0 miles SE 8.1 mph - N/A   Mostly Cloudy
2:25 PM 82.4 °F 60.8 °F 48% 30.13 in 10.0 miles SSE 6.9 mph - N/A   Scattered Clouds
3:05 PM 82.4 °F 60.8 °F 48% 30.12 in 10.0 miles SE 10.4 mph - N/A   Scattered Clouds
3:25 PM 80.6 °F 60.8 °F 51% 30.12 in 10.0 miles SSE 9.2 mph - N/A   Scattered Clouds
3:45 PM - - N/A% - - North - - N/A   Unknown
4:05 PM 80.6 °F 62.6 °F 54% 30.11 in 10.0 miles SE 11.5 mph - N/A   Scattered Clouds
4:25 PM 82.4 °F 62.6 °F 51% 30.10 in 10.0 miles SSE 11.5 mph - N/A   Clear
4:45 PM 82.4 °F 62.6 °F 51% 30.09 in 10.0 miles SE 10.4 mph - N/A   Scattered Clouds
5:05 PM 82.4 °F 60.8 °F 48% 30.09 in 10.0 miles SE 10.4 mph - N/A   Scattered Clouds
5:25 PM 82.4 °F 62.6 °F 51% 30.09 in 10.0 miles ESE 11.5 mph - N/A   Clear
5:45 PM 80.6 °F 62.6 °F 54% 30.09 in 10.0 miles SE 8.1 mph - N/A   Scattered Clouds
6:05 PM 80.6 °F 60.8 °F 51% 30.10 in 10.0 miles ESE 8.1 mph - N/A   Scattered Clouds
6:25 PM 80.6 °F 62.6 °F 54% 30.10 in 10.0 miles ESE 5.8 mph - N/A   Scattered Clouds
6:45 PM 78.8 °F 62.6 °F 57% 30.10 in 10.0 miles ESE 5.8 mph - N/A   Scattered Clouds
7:05 PM 78.8 °F 62.6 °F 57% 30.10 in 10.0 miles ESE 4.6 mph - N/A   Clear
7:25 PM 78.8 °F 62.6 °F 57% 30.10 in 10.0 miles East 4.6 mph - N/A   Clear
7:45 PM 77.0 °F 62.6 °F 61% 30.10 in 10.0 miles ESE 5.8 mph - N/A   Clear
8:05 PM 77.0 °F 62.6 °F 61% 30.10 in 10.0 miles ESE 6.9 mph - N/A   Clear
8:25 PM 78.8 °F 62.6 °F 57% 30.11 in 10.0 miles ESE 6.9 mph - N/A   Scattered Clouds
9:05 PM 77.0 °F 62.6 °F 61% 30.12 in 10.0 miles ESE 6.9 mph - N/A   Mostly Cloudy
9:25 PM 77.0 °F 64.4 °F 65% 30.13 in 10.0 miles ESE 8.1 mph - N/A   Mostly Cloudy
9:45 PM 75.2 °F 64.4 °F 69% 30.13 in 10.0 miles ESE 9.2 mph - N/A   Mostly Cloudy
10:05 PM 75.2 °F 64.4 °F 69% 30.14 in 10.0 miles ESE 9.2 mph - N/A   Mostly Cloudy
10:25 PM 75.2 °F 64.4 °F 69% 30.14 in 7.0 miles ESE 9.2 mph - N/A   Scattered Clouds
11:05 PM 77.0 °F 64.4 °F 65% 30.15 in 7.0 miles SSE 12.7 mph 23.0 mph N/A   Overcast
11:25 PM 73.4 °F 64.4 °F 73% 30.15 in 10.0 miles SSE 11.5 mph 17.3 mph N/A   Scattered Clouds
11:45 PM 73.4 °F 62.6 °F 69% 30.15 in 10.0 miles South 9.2 mph - N/A   Clear

Powered by the Weather Underground, Inc.